GFSWCAN_prec_precacc_159.txt.gz
Total_Precipitation_Accumulation
2.89 2.61 2.38 1.55 1.17 1.20 1.05 1.09 1.05 1.09 1.04 0.84 0.71 0.76 1.00 1.09 1.33 2.01 1.99 1.55 2.11 2.33 0.75 0.78 0.76 0.47 0.34 0.32 0.41 0.42 0.69 0.67 0.78 0.83 0.52 0.27 0.29 0.27 0.31 0.30 1.03 1.44 1.44 1.07 0.99 1.10 0.71 0.21 0.40 0.86 0.97 0.56 0.74 1.25
2.71 2.80 2.53 1.52 1.24 1.18 1.07 1.11 1.02 1.03 0.97 0.78 0.69 0.75 0.80 0.85 1.15 1.96 2.08 1.52 1.61 2.82 1.55 0.72 0.62 0.35 0.35 0.19 0.26 0.31 0.43 0.52 0.90 1.06 0.85 0.58 0.36 0.33 0.24 0.37 0.89 1.29 1.20 1.24 0.94 0.78 0.50 0.36 0.61 0.77 0.67 0.73 0.85 0.76
2.72 2.89 2.52 1.59 1.33 1.18 1.11 1.12 0.97 0.93 0.94 0.79 0.75 0.76 0.82 0.80 1.10 1.85 1.86 1.56 2.18 3.28 2.25 1.00 0.57 0.32 0.27 0.17 0.23 0.51 0.17 0.09 0.25 0.63 1.06 0.76 0.53 0.33 0.33 0.36 0.62 0.91 0.94 1.38 0.97 0.63 0.36 0.53 0.40 0.48 0.72 0.70 0.44 0.42
2.71 3.15 2.55 1.60 1.46 1.60 1.37 1.31 0.94 0.89 0.94 0.87 0.78 0.75 0.80 1.04 1.27 1.70 1.88 1.82 2.26 3.17 2.28 1.20 0.71 0.53 0.32 0.28 0.12 0.27 0.20 0.27 0.46 0.68 1.20 0.93 0.58 0.28 0.16 0.18 0.32 0.95 0.89 0.91 1.29 1.43 0.91 0.58 0.56 0.54 0.52 0.57 0.58 0.34
2.78 2.86 2.42 1.79 1.76 1.51 1.21 1.01 1.00 1.09 1.11 0.90 0.81 0.82 1.05 1.34 1.70 2.12 1.91 1.70 1.83 2.31 1.71 0.86 0.80 0.59 0.55 0.51 0.20 0.26 0.50 0.65 0.91 0.97 0.99 0.53 0.21 0.27 0.18 0.16 0.52 0.32 0.34 0.71 1.15 1.24 1.53 1.13 1.26 0.97 0.70 0.40 0.29 0.17
2.61 2.64 2.27 1.85 1.59 1.39 1.06 0.94 1.04 1.22 1.19 1.01 0.94 1.05 1.50 1.85 2.38 4.30 5.26 2.72 1.61 1.82 3.02 1.64 0.88 0.71 0.73 0.61 0.44 0.20 0.31 0.84 1.30 1.32 0.66 0.28 0.15 0.58 0.68 0.27 0.10 0.02 0.14 0.44 0.45 0.57 0.85 1.06 0.74 0.36 0.34 0.39 0.20 0.08
2.48 2.44 2.19 1.85 1.50 1.28 1.08 1.04 1.24 1.32 1.19 1.10 1.16 1.53 1.83 2.24 3.26 4.28 2.93 1.68 1.17 1.91 3.94 2.45 1.11 0.73 0.79 0.60 0.45 0.37 0.35 0.62 1.03 1.65 1.12 0.40 0.22 0.84 0.82 0.26 0.07 0.01 0.04 0.10 0.09 0.13 0.25 0.24 0.25 0.18 0.15 0.21 0.13 0.05
2.35 2.10 2.00 1.91 1.37 1.11 1.06 1.11 1.21 1.23 1.22 1.40 1.61 1.89 2.38 3.74 4.20 2.77 1.63 1.44 1.00 1.99 2.67 2.50 1.36 1.10 1.20 0.79 0.59 0.35 0.42 0.71 0.91 1.01 0.82 0.64 0.51 0.80 0.73 0.11 0.00 0.00 0.01 0.02 0.02 0.05 0.14 0.08 0.05 0.08 0.06 0.06 0.04 0.06
2.32 1.87 1.59 1.46 1.15 1.12 0.97 0.97 1.11 1.25 1.44 2.06 2.83 4.08 5.89 5.79 4.12 2.28 2.23 2.49 2.05 2.33 2.32 1.50 1.39 1.53 1.70 1.34 0.99 1.13 0.98 1.18 0.85 0.72 0.44 0.73 0.73 0.73 0.29 0.05 0.02 0.02 0.02 0.02 0.01 0.01 0.02 0.04 0.04 0.05 0.04 0.05 0.08 0.08
1.69 1.45 1.36 1.35 1.18 1.11 0.94 0.88 1.16 1.72 2.56 4.04 6.00 7.31 7.16 3.88 1.97 2.53 4.40 4.54 4.05 2.95 1.98 0.97 0.88 1.56 1.71 1.87 1.61 1.85 1.67 1.00 0.85 0.32 0.42 0.60 0.47 0.25 0.13 0.16 0.04 0.02 0.01 0.01 0.01 0.03 0.04 0.05 0.08 0.08 0.07 0.05 0.03 0.03
1.48 1.36 1.43 1.45 1.39 1.29 1.12 1.10 1.48 2.69 4.78 5.85 5.20 3.92 3.02 2.49 2.40 3.41 3.69 2.78 1.97 1.27 0.67 0.30 0.32 1.03 1.48 1.75 1.49 1.54 2.00 1.22 0.63 0.35 0.60 0.57 0.39 0.26 0.23 0.20 0.09 0.03 0.02 0.01 0.01 0.02 0.07 0.12 0.07 0.01 0.01 0.01 0.03 0.05
1.56 1.37 1.37 1.47 1.55 1.49 1.34 1.27 1.64 2.52 3.40 2.96 2.28 2.37 2.99 2.95 2.75 2.35 2.09 1.41 0.57 0.19 0.10 0.16 0.21 0.59 1.51 1.77 1.69 1.51 1.19 1.41 0.72 0.51 0.81 0.63 0.31 0.08 0.06 0.07 0.10 0.11 0.07 0.07 0.10 0.10 0.06 0.02 0.03 0.03 0.03 0.05 0.09 0.15
1.67 1.51 1.55 1.74 1.68 1.65 1.53 1.32 1.15 1.60 2.06 2.47 2.44 2.83 2.93 2.74 2.12 1.38 0.85 0.48 0.21 0.11 0.12 0.16 0.34 0.42 0.98 1.47 1.76 1.60 1.21 0.95 0.76 0.80 0.45 0.20 0.12 0.09 0.05 0.03 0.04 0.08 0.15 0.07 0.04 0.04 0.04 0.05 0.06 0.08 0.12 0.20 0.26 0.36
1.57 1.47 1.49 1.81 1.84 1.74 1.57 1.42 1.57 2.30 2.44 2.92 3.08 2.83 2.20 1.72 1.10 0.65 0.26 0.14 0.12 0.12 0.13 0.15 0.34 0.69 0.92 1.01 1.26 1.51 1.54 0.96 1.07 0.62 0.35 0.31 0.20 0.16 0.13 0.09 0.04 0.04 0.15 0.42 0.26 0.10 0.11 0.14 0.18 0.28 0.38 0.44 0.39 0.50
1.14 1.18 1.55 1.80 1.80 1.75 1.43 1.37 1.72 1.58 1.60 2.04 1.33 1.35 1.16 0.85 0.65 0.54 0.31 0.21 0.21 0.22 0.23 0.39 0.67 1.00 1.21 1.37 1.11 0.96 1.28 1.19 0.80 0.61 0.62 0.57 0.28 0.17 0.16 0.18 0.21 0.23 0.25 0.37 0.59 0.61 0.50 0.46 0.47 0.58 0.63 0.61 0.46 0.51
0.98 1.59 2.00 1.84 1.72 1.60 1.41 1.81 1.67 1.32 1.17 0.96 0.91 1.04 0.82 0.65 0.78 0.59 0.47 0.47 0.46 0.53 0.65 0.99 1.30 1.25 1.42 1.10 1.08 0.80 0.75 0.65 0.73 0.51 0.48 0.37 0.39 0.36 0.34 0.35 0.44 0.51 0.60 0.69 0.79 0.85 0.88 0.78 0.68 0.79 0.86 0.75 0.74 0.62
1.05 1.57 1.56 1.37 1.50 1.61 1.57 1.88 1.45 1.45 1.23 0.77 0.84 0.79 0.64 0.67 0.85 0.70 0.59 0.59 0.58 0.71 0.87 0.98 1.11 1.06 0.99 0.82 0.75 0.56 0.63 0.53 0.43 0.45 0.52 0.48 0.45 0.49 0.54 0.55 0.64 0.61 0.61 0.69 0.78 0.70 0.76 0.78 0.65 0.50 0.60 0.76 0.65 0.62
1.03 0.92 1.13 1.26 2.05 1.81 1.49 1.21 0.91 0.80 0.67 0.79 0.87 1.03 0.57 0.72 0.69 0.58 0.50 0.53 0.62 0.61 0.47 0.57 0.63 0.61 0.73 0.71 0.78 0.72 0.67 0.74 0.71 0.64 0.66 0.68 0.62 0.69 0.65 0.62 0.71 0.63 0.59 0.66 0.63 0.58 0.55 0.53 0.50 0.56 0.49 0.49 0.46 0.53
1.21 0.97 1.03 1.19 1.08 0.89 1.27 0.92 0.39 0.32 0.64 0.85 1.11 0.94 0.69 0.81 0.85 0.79 0.61 0.54 0.58 0.58 0.52 0.56 0.66 0.66 0.75 0.81 0.78 0.78 0.75 0.65 0.74 0.94 1.10 1.16 1.01 0.86 0.83 0.69 0.63 0.66 0.61 0.63 0.63 0.62 0.57 0.50 0.51 0.47 0.44 0.44 0.48 0.57
1.78 1.73 1.30 1.01 0.73 0.76 0.52 0.47 0.22 0.24 0.56 0.71 0.88 0.78 0.64 0.93 0.81 0.66 0.51 0.43 0.40 0.61 0.88 0.90 1.10 1.19 1.15 1.17 0.97 0.85 0.87 0.87 0.69 0.83 1.26 1.25 1.15 0.90 0.93 0.71 0.68 0.59 0.51 0.51 0.56 0.51 0.40 0.40 0.45 0.44 0.44 0.45 0.42 0.47
2.18 2.42 1.91 1.24 0.78 0.55 0.51 0.52 0.43 0.34 0.40 0.58 0.77 0.50 0.70 0.52 0.48 0.45 0.38 0.25 0.38 0.75 1.00 1.21 1.29 1.61 1.56 1.27 1.08 0.81 0.87 0.68 0.78 0.60 0.74 0.97 1.07 0.65 0.74 0.72 0.59 0.52 0.46 0.46 0.43 0.54 0.44 0.37 0.40 0.35 0.35 0.41 0.37 0.32
1.89 1.77 1.57 0.75 0.41 0.16 0.26 0.36 0.29 0.34 0.33 0.59 0.59 0.40 0.53 0.56 0.50 0.46 0.23 0.33 0.82 1.16 1.35 1.29 1.20 1.21 1.02 1.04 1.04 0.85 0.87 0.63 0.61 0.62 0.64 0.51 0.68 0.61 0.62 0.66 0.47 0.52 0.51 0.51 0.40 0.42 0.40 0.31 0.27 0.28 0.26 0.26 0.23 0.24
1.05 0.88 0.58 0.44 0.32 0.25 0.47 0.51 0.38 0.51 0.45 0.56 0.39 0.33 0.42 0.43 0.45 0.19 0.36 0.65 0.95 1.23 1.29 1.08 1.08 1.02 0.85 1.01 0.62 0.69 0.80 0.44 0.49 0.58 0.59 0.54 0.52 0.52 0.43 0.52 0.51 0.44 0.43 0.46 0.36 0.32 0.30 0.26 0.23 0.22 0.20 0.17 0.20 0.25
0.64 0.73 0.59 0.39 0.29 0.36 0.21 0.19 0.24 0.29 0.30 0.29 0.25 0.37 0.47 0.45 0.23 0.17 0.41 0.66 1.01 0.87 0.76 0.87 0.77 0.77 0.60 0.47 0.51 0.62 0.87 0.60 0.41 0.49 0.58 0.41 0.32 0.49 0.38 0.40 0.42 0.40 0.32 0.29 0.25 0.23 0.22 0.21 0.18 0.17 0.19 0.26 0.28 0.28
1.01 0.84 0.39 0.25 0.12 0.11 0.08 0.10 0.12 0.12 0.23 0.19 0.17 0.33 0.42 0.27 0.17 0.25 0.38 0.66 0.60 0.67 0.76 0.77 0.66 0.60 0.60 0.63 0.62 0.62 0.66 0.56 0.40 0.30 0.56 0.50 0.43 0.43 0.40 0.33 0.29 0.26 0.20 0.20 0.27 0.31 0.26 0.24 0.27 0.27 0.23 0.20 0.18 0.16
0.74 0.38 0.16 0.12 0.11 0.07 0.06 0.08 0.09 0.10 0.10 0.12 0.18 0.22 0.16 0.10 0.10 0.21 0.33 0.51 0.49 0.54 0.63 0.66 0.68 0.54 0.55 0.55 0.52 0.50 0.54 0.47 0.36 0.31 0.45 0.42 0.41 0.39 0.38 0.33 0.29 0.26 0.18 0.18 0.25 0.26 0.24 0.16 0.15 0.14 0.13 0.11 0.12 0.17
0.34 0.18 0.05 0.04 0.11 0.11 0.08 0.07 0.06 0.08 0.12 0.16 0.18 0.16 0.17 0.15 0.16 0.34 0.36 0.36 0.37 0.48 0.45 0.44 0.39 0.38 0.44 0.49 0.48 0.49 0.37 0.29 0.31 0.29 0.23 0.17 0.15 0.16 0.23 0.33 0.37 0.34 0.21 0.19 0.21 0.25 0.26 0.21 0.17 0.13 0.15 0.16 0.17 0.23
0.13 0.04 0.06 0.08 0.10 0.11 0.12 0.11 0.12 0.15 0.16 0.16 0.15 0.14 0.21 0.16 0.32 0.44 0.45 0.50 0.42 0.35 0.31 0.31 0.29 0.25 0.27 0.29 0.31 0.32 0.32 0.29 0.22 0.14 0.09 0.14 0.16 0.17 0.16 0.21 0.24 0.18 0.16 0.20 0.20 0.21 0.22 0.24 0.24 0.23 0.23 0.25 0.22 0.19
0.09 0.07 0.06 0.07 0.15 0.19 0.23 0.22 0.25 0.26 0.24 0.25 0.20 0.21 0.26 0.41 0.70 0.57 0.59 0.46 0.35 0.25 0.25 0.28 0.38 0.27 0.20 0.18 0.19 0.21 0.20 0.21 0.25 0.24 0.19 0.27 0.31 0.30 0.19 0.16 0.15 0.15 0.15 0.17 0.19 0.23 0.24 0.26 0.24 0.26 0.29 0.28 0.28 0.30
0.12 0.17 0.18 0.12 0.18 0.31 0.45 0.34 0.35 0.31 0.21 0.17 0.15 0.19 0.22 0.47 0.74 0.53 0.36 0.31 0.27 0.29 0.30 0.26 0.27 0.19 0.22 0.20 0.21 0.19 0.21 0.18 0.21 0.30 0.27 0.24 0.26 0.25 0.19 0.21 0.21 0.20 0.21 0.24 0.23 0.21 0.21 0.21 0.25 0.34 0.31 0.31 0.35 0.35
0.16 0.17 0.16 0.16 0.27 0.30 0.26 0.23 0.20 0.15 0.12 0.11 0.09 0.13 0.23 0.35 0.38 0.28 0.32 0.38 0.26 0.22 0.17 0.17 0.18 0.21 0.18 0.16 0.20 0.18 0.22 0.23 0.16 0.17 0.21 0.24 0.24 0.24 0.25 0.23 0.24 0.24 0.23 0.22 0.19 0.20 0.21 0.23 0.29 0.29 0.24 0.21 0.22 0.20
0.11 0.11 0.13 0.17 0.24 0.24 0.27 0.36 0.23 0.17 0.16 0.11 0.15 0.13 0.18 0.16 0.20 0.28 0.26 0.29 0.18 0.16 0.21 0.19 0.18 0.20 0.20 0.20 0.22 0.21 0.20 0.19 0.16 0.16 0.20 0.22 0.23 0.23 0.20 0.18 0.18 0.18 0.17 0.16 0.15 0.15 0.14 0.15 0.17 0.14 0.14 0.12 0.12 0.11
0.16 0.16 0.16 0.16 0.17 0.17 0.18 0.23 0.16 0.14 0.12 0.12 0.15 0.16 0.16 0.16 0.30 0.38 0.25 0.22 0.26 0.24 0.25 0.27 0.28 0.30 0.30 0.26 0.26 0.23 0.18 0.16 0.15 0.14 0.16 0.15 0.15 0.14 0.15 0.16 0.15 0.14 0.12 0.12 0.12 0.13 0.10 0.10 0.11 0.12 0.11 0.11 0.10 0.08

GFSWCAN_prec_precacc_162.txt.gz
Total_Precipitation_Accumulation
2.91 2.63 2.39 1.57 1.18 1.21 1.07 1.10 1.07 1.11 1.05 0.87 0.75 0.79 1.02 1.13 1.39 2.07 2.00 1.56 2.13 2.37 0.75 0.79 0.77 0.52 0.43 0.38 0.43 0.43 0.74 0.73 0.91 0.97 0.62 0.36 0.33 0.28 0.32 0.30 1.03 1.44 1.44 1.07 0.99 1.13 0.72 0.21 0.40 0.86 0.97 0.56 0.74 1.25
2.72 2.81 2.55 1.54 1.25 1.19 1.09 1.11 1.04 1.05 0.99 0.79 0.70 0.78 0.84 0.89 1.21 2.02 2.09 1.53 1.64 2.86 1.56 0.72 0.62 0.38 0.39 0.29 0.39 0.40 0.46 0.53 0.91 1.09 0.87 0.59 0.37 0.34 0.25 0.37 0.89 1.29 1.20 1.24 0.94 0.78 0.50 0.36 0.61 0.77 0.67 0.73 0.85 0.76
2.73 2.89 2.53 1.60 1.34 1.18 1.12 1.12 0.97 0.94 0.95 0.79 0.75 0.76 0.84 0.82 1.12 1.88 1.88 1.59 2.24 3.38 2.30 1.01 0.57 0.32 0.28 0.20 0.32 0.76 0.26 0.10 0.25 0.64 1.07 0.77 0.54 0.33 0.33 0.36 0.62 0.91 0.94 1.38 0.97 0.63 0.36 0.53 0.40 0.48 0.72 0.70 0.44 0.42
2.71 3.16 2.55 1.60 1.46 1.60 1.38 1.31 0.95 0.90 0.94 0.88 0.79 0.75 0.80 1.05 1.28 1.71 1.92 1.93 2.35 3.24 2.30 1.20 0.71 0.53 0.33 0.30 0.16 0.38 0.30 0.36 0.48 0.69 1.21 0.94 0.59 0.28 0.16 0.18 0.32 0.95 0.89 0.91 1.29 1.43 0.91 0.58 0.56 0.54 0.52 0.57 0.58 0.34
2.78 2.86 2.43 1.80 1.76 1.51 1.21 1.01 1.00 1.09 1.11 0.90 0.83 0.84 1.05 1.34 1.70 2.14 1.96 1.80 1.96 2.41 1.74 0.86 0.81 0.60 0.59 0.59 0.31 0.33 0.60 0.89 1.09 1.01 1.00 0.54 0.22 0.27 0.18 0.16 0.52 0.32 0.34 0.71 1.15 1.24 1.53 1.13 1.26 0.97 0.70 0.40 0.29 0.17
2.61 2.64 2.27 1.85 1.59 1.39 1.06 0.94 1.04 1.22 1.20 1.02 0.96 1.07 1.52 1.86 2.39 4.38 5.44 2.76 1.70 1.97 3.07 1.65 0.90 0.81 0.94 0.86 0.62 0.30 0.46 1.01 1.53 1.46 0.69 0.28 0.15 0.58 0.68 0.27 0.10 0.02 0.14 0.44 0.45 0.57 0.85 1.06 0.74 0.36 0.34 0.39 0.20 0.08
2.51 2.47 2.21 1.86 1.51 1.28 1.08 1.04 1.24 1.34 1.21 1.14 1.18 1.55 1.85 2.25 3.27 4.38 3.08 1.70 1.18 1.97 4.05 2.49 1.18 0.99 1.11 0.95 0.78 0.52 0.49 0.71 1.09 1.72 1.14 0.41 0.22 0.84 0.82 0.26 0.07 0.01 0.04 0.10 0.09 0.13 0.25 0.24 0.25 0.18 0.15 0.21 0.13 0.05
2.48 2.22 2.13 2.03 1.41 1.13 1.06 1.12 1.23 1.26 1.25 1.45 1.66 1.93 2.40 3.78 4.23 2.80 1.69 1.50 1.01 1.99 2.69 2.59 1.50 1.41 1.48 1.07 0.83 0.44 0.48 0.74 0.91 1.01 0.83 0.64 0.51 0.80 0.73 0.11 0.00 0.00 0.01 0.02 0.02 0.05 0.14 0.08 0.05 0.08 0.06 0.06 0.04 0.06
2.46 2.01 1.76 1.78 1.34 1.16 0.99 0.99 1.13 1.30 1.51 2.13 2.91 4.13 5.96 5.87 4.17 2.30 2.32 2.57 2.05 2.37 2.42 1.63 1.55 1.77 1.84 1.41 1.04 1.15 0.98 1.18 0.85 0.72 0.44 0.73 0.73 0.73 0.29 0.05 0.02 0.02 0.02 0.02 0.01 0.01 0.02 0.04 0.04 0.05 0.04 0.05 0.08 0.08
1.72 1.49 1.42 1.55 1.45 1.16 0.96 0.91 1.21 1.83 2.63 4.08 6.07 7.37 7.22 3.90 2.00 2.56 4.48 4.69 4.14 2.97 2.01 1.05 1.00 1.64 1.74 1.88 1.61 1.85 1.67 1.00 0.85 0.32 0.42 0.60 0.47 0.25 0.13 0.16 0.04 0.02 0.01 0.01 0.01 0.03 0.04 0.05 0.08 0.08 0.07 0.05 0.03 0.03
1.49 1.37 1.44 1.55 1.52 1.31 1.14 1.13 1.57 2.76 4.82 5.88 5.22 3.98 3.06 2.52 2.42 3.44 3.80 2.93 2.04 1.27 0.67 0.31 0.37 1.05 1.49 1.75 1.49 1.54 2.00 1.22 0.63 0.35 0.60 0.57 0.39 0.26 0.23 0.20 0.09 0.03 0.02 0.01 0.01 0.02 0.07 0.12 0.07 0.01 0.01 0.01 0.03 0.05
1.57 1.38 1.39 1.50 1.57 1.50 1.35 1.30 1.70 2.54 3.41 2.96 2.32 2.43 3.02 3.02 2.77 2.43 2.17 1.45 0.57 0.19 0.10 0.16 0.21 0.59 1.51 1.77 1.69 1.51 1.19 1.41 0.72 0.51 0.81 0.63 0.31 0.08 0.06 0.07 0.10 0.11 0.07 0.07 0.10 0.10 0.06 0.02 0.03 0.03 0.03 0.05 0.09 0.15
1.68 1.51 1.55 1.74 1.69 1.67 1.56 1.36 1.16 1.60 2.09 2.51 2.46 2.85 2.98 2.78 2.13 1.40 0.86 0.48 0.21 0.11 0.12 0.16 0.34 0.42 0.98 1.47 1.76 1.60 1.21 0.95 0.76 0.80 0.45 0.20 0.12 0.09 0.05 0.03 0.04 0.08 0.15 0.07 0.04 0.04 0.04 0.05 0.06 0.08 0.12 0.20 0.26 0.36
1.58 1.48 1.50 1.82 1.85 1.76 1.59 1.43 1.58 2.32 2.46 2.93 3.08 2.84 2.20 1.72 1.10 0.65 0.26 0.14 0.12 0.12 0.13 0.15 0.34 0.69 0.92 1.01 1.26 1.51 1.54 0.96 1.07 0.62 0.35 0.31 0.20 0.16 0.13 0.09 0.04 0.04 0.15 0.42 0.26 0.10 0.11 0.14 0.18 0.28 0.38 0.44 0.39 0.50
1.15 1.19 1.56 1.81 1.81 1.77 1.45 1.39 1.73 1.58 1.61 2.04 1.33 1.35 1.16 0.85 0.65 0.54 0.31 0.21 0.21 0.22 0.23 0.39 0.67 1.00 1.21 1.37 1.11 0.96 1.28 1.19 0.80 0.61 0.62 0.57 0.28 0.17 0.16 0.18 0.21 0.23 0.25 0.37 0.59 0.61 0.50 0.46 0.47 0.58 0.63 0.61 0.46 0.51
0.99 1.60 2.03 1.87 1.75 1.61 1.41 1.82 1.67 1.32 1.17 0.96 0.91 1.04 0.82 0.65 0.78 0.59 0.47 0.47 0.46 0.53 0.65 0.99 1.30 1.25 1.42 1.10 1.08 0.80 0.75 0.65 0.73 0.51 0.48 0.37 0.39 0.36 0.34 0.35 0.44 0.51 0.60 0.69 0.79 0.85 0.88 0.78 0.68 0.79 0.86 0.75 0.74 0.62
1.05 1.60 1.61 1.40 1.50 1.62 1.58 1.88 1.45 1.45 1.23 0.77 0.84 0.80 0.65 0.67 0.85 0.70 0.59 0.59 0.58 0.71 0.87 0.98 1.11 1.06 0.99 0.82 0.75 0.56 0.63 0.53 0.43 0.45 0.52 0.48 0.45 0.49 0.54 0.55 0.64 0.61 0.61 0.69 0.78 0.70 0.76 0.78 0.65 0.50 0.60 0.76 0.65 0.62
1.05 0.95 1.15 1.27 2.06 1.81 1.49 1.21 0.91 0.80 0.68 0.80 0.87 1.03 0.58 0.72 0.69 0.58 0.50 0.53 0.62 0.61 0.47 0.57 0.63 0.61 0.73 0.71 0.78 0.72 0.67 0.74 0.71 0.64 0.66 0.68 0.62 0.69 0.65 0.62 0.71 0.63 0.59 0.66 0.63 0.58 0.55 0.53 0.50 0.56 0.49 0.49 0.46 0.53
1.21 0.97 1.03 1.19 1.08 0.89 1.27 0.92 0.39 0.32 0.65 0.86 1.12 0.95 0.69 0.81 0.85 0.79 0.61 0.54 0.58 0.58 0.52 0.56 0.66 0.66 0.75 0.81 0.78 0.78 0.75 0.65 0.75 0.94 1.10 1.16 1.01 0.86 0.83 0.69 0.63 0.66 0.61 0.63 0.63 0.62 0.57 0.50 0.51 0.47 0.44 0.44 0.48 0.57
1.78 1.73 1.30 1.01 0.73 0.76 0.52 0.47 0.22 0.24 0.57 0.73 0.90 0.80 0.65 0.94 0.82 0.66 0.51 0.43 0.40 0.61 0.88 0.90 1.10 1.19 1.15 1.17 0.97 0.85 0.87 0.87 0.69 0.83 1.26 1.26 1.15 0.90 0.93 0.71 0.68 0.59 0.51 0.51 0.56 0.51 0.40 0.40 0.45 0.44 0.44 0.45 0.42 0.47
2.18 2.42 1.91 1.24 0.78 0.55 0.51 0.52 0.43 0.34 0.41 0.61 0.79 0.50 0.71 0.52 0.48 0.45 0.38 0.25 0.38 0.75 1.01 1.22 1.29 1.61 1.56 1.28 1.08 0.81 0.87 0.68 0.78 0.60 0.74 0.97 1.08 0.65 0.74 0.72 0.59 0.52 0.46 0.46 0.43 0.54 0.44 0.37 0.40 0.35 0.35 0.41 0.37 0.32
1.89 1.77 1.57 0.75 0.41 0.16 0.26 0.36 0.29 0.34 0.33 0.61 0.59 0.40 0.53 0.56 0.50 0.46 0.23 0.33 0.82 1.16 1.35 1.29 1.20 1.21 1.03 1.04 1.04 0.85 0.87 0.63 0.61 0.62 0.64 0.51 0.68 0.61 0.62 0.66 0.47 0.52 0.51 0.51 0.40 0.42 0.40 0.31 0.27 0.28 0.26 0.26 0.23 0.24
1.05 0.88 0.58 0.44 0.32 0.25 0.47 0.51 0.38 0.51 0.45 0.56 0.39 0.33 0.42 0.43 0.45 0.19 0.36 0.65 0.96 1.23 1.29 1.08 1.08 1.02 0.86 1.01 0.62 0.69 0.80 0.44 0.49 0.58 0.59 0.54 0.52 0.52 0.43 0.52 0.51 0.44 0.43 0.46 0.36 0.32 0.30 0.26 0.23 0.22 0.20 0.18 0.20 0.25
0.64 0.73 0.59 0.39 0.29 0.36 0.21 0.19 0.24 0.29 0.30 0.29 0.25 0.37 0.47 0.45 0.23 0.17 0.41 0.66 1.02 0.87 0.76 0.87 0.77 0.77 0.60 0.47 0.51 0.62 0.87 0.60 0.41 0.49 0.58 0.41 0.32 0.49 0.38 0.40 0.42 0.40 0.32 0.29 0.25 0.23 0.22 0.21 0.19 0.18 0.20 0.27 0.28 0.28
1.01 0.84 0.39 0.25 0.12 0.11 0.08 0.10 0.12 0.12 0.23 0.19 0.17 0.33 0.42 0.27 0.17 0.25 0.38 0.66 0.60 0.67 0.76 0.77 0.66 0.60 0.60 0.63 0.62 0.62 0.66 0.56 0.40 0.30 0.56 0.50 0.43 0.43 0.41 0.34 0.29 0.27 0.21 0.21 0.27 0.31 0.26 0.25 0.27 0.27 0.23 0.21 0.18 0.16
0.74 0.38 0.16 0.12 0.11 0.07 0.06 0.08 0.09 0.10 0.10 0.12 0.18 0.22 0.16 0.10 0.10 0.21 0.33 0.51 0.49 0.54 0.63 0.66 0.68 0.54 0.55 0.55 0.52 0.50 0.54 0.47 0.36 0.31 0.45 0.42 0.41 0.39 0.38 0.33 0.29 0.26 0.18 0.18 0.25 0.26 0.25 0.17 0.16 0.15 0.14 0.12 0.12 0.17
0.34 0.18 0.05 0.04 0.11 0.11 0.08 0.07 0.06 0.08 0.12 0.16 0.18 0.16 0.17 0.15 0.16 0.34 0.36 0.36 0.37 0.48 0.45 0.44 0.39 0.38 0.44 0.49 0.48 0.49 0.37 0.29 0.31 0.29 0.23 0.17 0.15 0.16 0.23 0.33 0.37 0.34 0.21 0.19 0.22 0.25 0.26 0.22 0.18 0.14 0.17 0.17 0.18 0.23
0.13 0.04 0.06 0.08 0.10 0.11 0.12 0.11 0.12 0.15 0.16 0.16 0.15 0.14 0.21 0.16 0.32 0.44 0.45 0.50 0.42 0.35 0.31 0.31 0.29 0.25 0.27 0.29 0.31 0.32 0.32 0.29 0.22 0.14 0.09 0.14 0.16 0.17 0.16 0.21 0.24 0.18 0.16 0.20 0.20 0.21 0.24 0.25 0.24 0.24 0.24 0.25 0.22 0.19
0.09 0.07 0.06 0.07 0.15 0.19 0.23 0.22 0.25 0.26 0.24 0.25 0.20 0.21 0.26 0.41 0.70 0.58 0.59 0.46 0.35 0.25 0.25 0.28 0.38 0.27 0.21 0.19 0.19 0.21 0.20 0.21 0.25 0.24 0.19 0.27 0.31 0.30 0.20 0.16 0.15 0.15 0.15 0.17 0.19 0.24 0.24 0.27 0.25 0.26 0.29 0.28 0.29 0.31
0.12 0.17 0.18 0.12 0.18 0.31 0.45 0.34 0.36 0.31 0.21 0.17 0.16 0.19 0.22 0.47 0.75 0.53 0.37 0.31 0.27 0.29 0.30 0.26 0.27 0.19 0.22 0.20 0.21 0.20 0.21 0.18 0.22 0.30 0.27 0.24 0.26 0.25 0.19 0.21 0.21 0.20 0.21 0.24 0.24 0.22 0.23 0.22 0.26 0.35 0.31 0.31 0.36 0.35
0.16 0.17 0.16 0.16 0.27 0.30 0.27 0.23 0.20 0.15 0.12 0.11 0.09 0.13 0.23 0.35 0.39 0.29 0.33 0.38 0.26 0.22 0.17 0.17 0.18 0.21 0.18 0.16 0.20 0.18 0.22 0.23 0.16 0.17 0.21 0.24 0.24 0.24 0.25 0.23 0.24 0.24 0.24 0.25 0.21 0.21 0.22 0.24 0.30 0.29 0.24 0.21 0.22 0.20
0.11 0.11 0.13 0.17 0.24 0.24 0.27 0.36 0.24 0.18 0.16 0.12 0.15 0.13 0.18 0.16 0.20 0.29 0.27 0.29 0.18 0.17 0.21 0.19 0.18 0.20 0.20 0.20 0.22 0.21 0.20 0.19 0.16 0.16 0.20 0.22 0.23 0.23 0.20 0.18 0.18 0.19 0.18 0.17 0.17 0.17 0.15 0.16 0.18 0.15 0.15 0.12 0.13 0.11
0.16 0.16 0.16 0.17 0.17 0.17 0.18 0.23 0.17 0.14 0.12 0.12 0.16 0.16 0.17 0.16 0.30 0.39 0.25 0.22 0.26 0.25 0.26 0.27 0.29 0.30 0.31 0.27 0.26 0.23 0.18 0.16 0.15 0.14 0.16 0.16 0.15 0.15 0.16 0.16 0.16 0.15 0.13 0.13 0.14 0.15 0.12 0.12 0.12 0.13 0.12 0.11 0.10 0.08

GFSWCAN_prec_precacc_165.txt.gz
Total_Precipitation_Accumulation
2.94 2.66 2.41 1.58 1.21 1.26 1.11 1.12 1.07 1.11 1.05 0.87 0.77 0.83 1.06 1.17 1.44 2.10 2.01 1.57 2.16 2.42 0.76 0.80 0.79 0.54 0.46 0.45 0.51 0.48 0.80 0.78 0.92 1.01 0.71 0.43 0.36 0.28 0.32 0.30 1.03 1.45 1.46 1.11 1.05 1.21 0.74 0.21 0.40 0.86 0.97 0.56 0.74 1.25
2.73 2.82 2.56 1.56 1.29 1.24 1.14 1.15 1.05 1.07 0.99 0.79 0.72 0.82 0.87 0.94 1.26 2.06 2.11 1.54 1.67 2.92 1.56 0.72 0.62 0.38 0.40 0.30 0.43 0.50 0.61 0.56 0.93 1.11 0.90 0.60 0.41 0.38 0.26 0.38 0.89 1.29 1.21 1.25 0.95 0.79 0.50 0.36 0.61 0.77 0.67 0.73 0.85 0.76
2.73 2.90 2.54 1.61 1.36 1.22 1.15 1.15 1.00 0.95 0.97 0.82 0.75 0.77 0.86 0.86 1.18 1.92 1.88 1.60 2.27 3.44 2.32 1.02 0.57 0.32 0.28 0.21 0.33 0.82 0.31 0.13 0.29 0.68 1.10 0.79 0.55 0.33 0.35 0.38 0.62 0.91 0.94 1.39 0.98 0.63 0.36 0.53 0.40 0.48 0.72 0.70 0.44 0.42
2.71 3.16 2.56 1.61 1.48 1.62 1.39 1.33 0.96 0.90 0.95 0.90 0.79 0.75 0.81 1.08 1.33 1.74 1.92 1.93 2.36 3.30 2.33 1.20 0.71 0.53 0.33 0.30 0.17 0.38 0.31 0.37 0.54 0.74 1.28 0.98 0.59 0.28 0.16 0.18 0.32 0.95 0.89 0.91 1.29 1.43 0.91 0.58 0.56 0.54 0.52 0.57 0.58 0.34
2.78 2.86 2.43 1.80 1.77 1.53 1.22 1.02 1.01 1.09 1.11 0.91 0.84 0.84 1.05 1.35 1.74 2.17 1.96 1.80 1.96 2.50 1.87 0.88 0.81 0.60 0.59 0.59 0.31 0.34 0.61 0.91 1.27 1.16 1.09 0.58 0.23 0.28 0.18 0.17 0.52 0.32 0.34 0.71 1.15 1.24 1.53 1.13 1.26 0.97 0.70 0.40 0.29 0.17
2.62 2.64 2.27 1.86 1.60 1.39 1.07 0.94 1.04 1.23 1.20 1.02 0.97 1.08 1.54 1.87 2.42 4.40 5.44 2.76 1.70 2.02 3.14 1.66 0.90 0.81 0.94 0.86 0.62 0.31 0.48 1.11 1.79 1.69 0.80 0.30 0.15 0.58 0.69 0.28 0.10 0.02 0.14 0.44 0.45 0.57 0.85 1.06 0.74 0.36 0.34 0.39 0.20 0.08
2.51 2.47 2.21 1.86 1.51 1.28 1.08 1.04 1.24 1.34 1.22 1.15 1.19 1.59 1.89 2.29 3.28 4.38 3.08 1.77 1.23 2.07 4.34 2.57 1.19 0.99 1.12 0.96 0.79 0.55 0.58 0.84 1.31 2.04 1.34 0.45 0.22 0.84 0.83 0.26 0.07 0.01 0.04 0.10 0.09 0.13 0.25 0.24 0.25 0.18 0.15 0.21 0.13 0.05
2.49 2.22 2.13 2.03 1.41 1.13 1.06 1.12 1.23 1.26 1.25 1.46 1.67 1.96 2.44 3.82 4.26 2.81 1.72 1.55 1.08 2.05 2.81 2.66 1.51 1.42 1.52 1.14 0.96 0.59 0.68 0.93 1.10 1.20 0.97 0.73 0.58 0.83 0.74 0.11 0.00 0.00 0.01 0.02 0.02 0.05 0.14 0.08 0.05 0.08 0.06 0.06 0.04 0.06
2.51 2.04 1.78 1.78 1.35 1.16 0.99 0.99 1.13 1.30 1.52 2.15 2.96 4.24 6.03 5.91 4.19 2.30 2.34 2.70 2.16 2.42 2.46 1.65 1.56 1.86 2.05 1.62 1.24 1.32 1.09 1.26 0.90 0.75 0.46 0.76 0.78 0.77 0.30 0.05 0.02 0.02 0.02 0.02 0.01 0.01 0.02 0.04 0.04 0.05 0.04 0.05 0.08 0.08
1.86 1.56 1.49 1.62 1.51 1.17 0.97 0.91 1.21 1.84 2.69 4.22 6.39 7.57 7.24 3.91 2.00 2.58 4.65 5.15 4.32 3.03 2.03 1.09 1.08 1.79 1.98 2.02 1.69 1.89 1.68 1.01 0.85 0.32 0.42 0.60 0.47 0.25 0.13 0.16 0.04 0.02 0.01 0.01 0.01 0.03 0.04 0.05 0.08 0.08 0.07 0.05 0.03 0.03
1.54 1.41 1.50 1.68 1.66 1.34 1.14 1.13 1.59 2.88 5.03 6.13 5.43 4.01 3.07 2.53 2.45 3.46 3.90 3.09 2.18 1.32 0.67 0.32 0.47 1.20 1.59 1.79 1.51 1.55 2.00 1.22 0.63 0.35 0.60 0.57 0.39 0.26 0.23 0.20 0.09 0.03 0.02 0.01 0.01 0.02 0.07 0.12 0.07 0.01 0.01 0.01 0.03 0.05
1.58 1.39 1.42 1.67 1.70 1.52 1.36 1.33 1.83 2.76 3.54 2.99 2.33 2.46 3.05 3.05 2.80 2.43 2.18 1.47 0.60 0.19 0.10 0.16 0.25 0.65 1.52 1.78 1.69 1.52 1.19 1.41 0.72 0.51 0.81 0.63 0.31 0.08 0.06 0.07 0.10 0.11 0.07 0.07 0.10 0.10 0.06 0.02 0.03 0.03 0.03 0.05 0.09 0.15
1.69 1.53 1.60 1.85 1.73 1.68 1.59 1.46 1.31 1.65 2.10 2.52 2.48 2.86 3.00 2.80 2.14 1.41 0.86 0.48 0.21 0.11 0.12 0.16 0.34 0.43 0.98 1.47 1.76 1.60 1.21 0.95 0.76 0.80 0.45 0.20 0.12 0.09 0.05 0.03 0.04 0.08 0.15 0.07 0.04 0.04 0.04 0.05 0.06 0.08 0.12 0.20 0.26 0.36
1.59 1.49 1.53 1.84 1.87 1.79 1.66 1.51 1.61 2.33 2.48 2.96 3.11 2.85 2.22 1.72 1.10 0.65 0.26 0.14 0.12 0.12 0.13 0.15 0.34 0.69 0.92 1.01 1.26 1.51 1.54 0.96 1.07 0.62 0.35 0.31 0.20 0.16 0.13 0.09 0.04 0.04 0.15 0.42 0.26 0.10 0.11 0.14 0.18 0.28 0.38 0.44 0.39 0.50
1.16 1.19 1.56 1.83 1.82 1.78 1.47 1.40 1.73 1.60 1.62 2.05 1.34 1.35 1.16 0.85 0.65 0.54 0.31 0.21 0.21 0.22 0.23 0.39 0.67 1.00 1.21 1.37 1.11 0.96 1.28 1.19 0.80 0.61 0.62 0.57 0.28 0.17 0.16 0.18 0.21 0.23 0.25 0.37 0.59 0.61 0.50 0.46 0.47 0.58 0.63 0.61 0.46 0.51
1.00 1.61 2.04 1.88 1.75 1.63 1.43 1.83 1.68 1.34 1.18 0.96 0.91 1.04 0.82 0.65 0.78 0.59 0.47 0.47 0.46 0.53 0.65 0.99 1.30 1.25 1.42 1.10 1.08 0.80 0.75 0.65 0.73 0.51 0.48 0.37 0.39 0.36 0.34 0.35 0.44 0.51 0.60 0.69 0.79 0.85 0.88 0.78 0.68 0.79 0.86 0.75 0.74 0.62
1.06 1.62 1.63 1.41 1.51 1.64 1.59 1.88 1.45 1.45 1.23 0.77 0.85 0.80 0.65 0.67 0.85 0.70 0.59 0.59 0.58 0.71 0.87 0.98 1.11 1.06 0.99 0.82 0.75 0.56 0.63 0.53 0.43 0.45 0.52 0.48 0.45 0.49 0.54 0.55 0.64 0.61 0.61 0.69 0.78 0.70 0.76 0.78 0.65 0.50 0.60 0.76 0.65 0.62
1.07 0.98 1.16 1.28 2.07 1.82 1.49 1.21 0.91 0.80 0.68 0.80 0.88 1.04 0.58 0.72 0.69 0.58 0.50 0.53 0.62 0.61 0.47 0.57 0.63 0.61 0.73 0.71 0.78 0.72 0.67 0.74 0.71 0.64 0.67 0.68 0.62 0.69 0.65 0.62 0.71 0.63 0.59 0.66 0.63 0.58 0.55 0.53 0.50 0.56 0.49 0.49 0.46 0.53
1.22 0.97 1.03 1.20 1.08 0.89 1.27 0.92 0.39 0.32 0.66 0.86 1.13 0.95 0.70 0.81 0.85 0.79 0.61 0.54 0.58 0.58 0.52 0.56 0.66 0.66 0.75 0.81 0.78 0.78 0.75 0.65 0.75 0.95 1.11 1.16 1.01 0.86 0.83 0.69 0.63 0.66 0.61 0.63 0.63 0.62 0.57 0.50 0.51 0.47 0.44 0.44 0.48 0.57
1.78 1.73 1.30 1.01 0.73 0.76 0.52 0.47 0.22 0.24 0.57 0.74 0.90 0.80 0.66 0.95 0.82 0.66 0.51 0.43 0.40 0.61 0.88 0.90 1.10 1.19 1.15 1.17 0.97 0.85 0.87 0.87 0.69 0.83 1.26 1.26 1.15 0.90 0.93 0.71 0.68 0.59 0.51 0.51 0.56 0.51 0.40 0.40 0.45 0.44 0.44 0.45 0.42 0.47
2.18 2.42 1.91 1.24 0.78 0.55 0.51 0.52 0.43 0.34 0.41 0.61 0.80 0.51 0.71 0.52 0.50 0.46 0.38 0.25 0.38 0.75 1.01 1.22 1.29 1.61 1.56 1.28 1.08 0.81 0.87 0.68 0.78 0.60 0.74 0.97 1.08 0.65 0.74 0.72 0.59 0.52 0.46 0.46 0.43 0.54 0.44 0.37 0.40 0.35 0.35 0.41 0.37 0.32
1.89 1.77 1.57 0.75 0.41 0.16 0.26 0.36 0.29 0.34 0.33 0.61 0.59 0.40 0.53 0.56 0.51 0.46 0.23 0.33 0.82 1.16 1.35 1.29 1.20 1.21 1.03 1.04 1.04 0.85 0.87 0.63 0.61 0.62 0.64 0.51 0.68 0.61 0.62 0.66 0.47 0.52 0.51 0.51 0.40 0.42 0.40 0.31 0.27 0.28 0.26 0.26 0.23 0.24
1.05 0.88 0.58 0.44 0.32 0.25 0.47 0.51 0.38 0.51 0.45 0.56 0.39 0.33 0.42 0.43 0.45 0.19 0.36 0.65 0.96 1.23 1.29 1.08 1.08 1.02 0.86 1.01 0.62 0.69 0.80 0.44 0.49 0.58 0.59 0.54 0.52 0.52 0.43 0.52 0.51 0.44 0.43 0.46 0.36 0.32 0.30 0.26 0.23 0.22 0.20 0.18 0.20 0.25
0.64 0.73 0.59 0.39 0.29 0.36 0.21 0.19 0.24 0.29 0.30 0.29 0.25 0.37 0.47 0.45 0.23 0.17 0.41 0.66 1.02 0.87 0.76 0.87 0.77 0.77 0.60 0.47 0.51 0.62 0.87 0.60 0.41 0.49 0.58 0.41 0.32 0.49 0.38 0.40 0.42 0.40 0.32 0.29 0.25 0.23 0.22 0.21 0.19 0.18 0.20 0.28 0.29 0.29
1.01 0.84 0.39 0.25 0.12 0.11 0.08 0.10 0.12 0.12 0.23 0.19 0.17 0.33 0.42 0.27 0.17 0.25 0.38 0.66 0.60 0.67 0.76 0.77 0.66 0.60 0.60 0.63 0.62 0.62 0.66 0.56 0.40 0.30 0.56 0.50 0.43 0.43 0.41 0.34 0.30 0.27 0.21 0.21 0.27 0.31 0.26 0.25 0.28 0.27 0.24 0.22 0.20 0.18
0.74 0.38 0.16 0.12 0.11 0.07 0.06 0.08 0.09 0.10 0.10 0.12 0.18 0.22 0.16 0.10 0.10 0.21 0.33 0.51 0.49 0.54 0.63 0.66 0.68 0.54 0.55 0.55 0.52 0.50 0.54 0.47 0.36 0.31 0.45 0.42 0.41 0.39 0.38 0.33 0.29 0.26 0.18 0.18 0.25 0.26 0.25 0.18 0.16 0.16 0.15 0.13 0.14 0.19
0.34 0.18 0.05 0.04 0.11 0.11 0.08 0.07 0.06 0.08 0.12 0.16 0.18 0.16 0.17 0.15 0.16 0.34 0.36 0.36 0.37 0.48 0.45 0.44 0.39 0.38 0.44 0.49 0.48 0.49 0.37 0.29 0.31 0.29 0.23 0.17 0.15 0.16 0.23 0.33 0.37 0.34 0.21 0.19 0.22 0.25 0.26 0.22 0.18 0.15 0.18 0.18 0.19 0.24
0.13 0.04 0.06 0.08 0.10 0.11 0.12 0.11 0.12 0.15 0.16 0.16 0.15 0.14 0.21 0.16 0.32 0.44 0.45 0.51 0.42 0.35 0.31 0.31 0.29 0.25 0.27 0.29 0.31 0.32 0.32 0.29 0.22 0.14 0.09 0.14 0.16 0.17 0.16 0.21 0.24 0.18 0.16 0.20 0.20 0.22 0.24 0.26 0.25 0.25 0.25 0.27 0.24 0.21
0.09 0.07 0.06 0.07 0.15 0.19 0.23 0.22 0.25 0.27 0.24 0.25 0.20 0.21 0.26 0.42 0.70 0.58 0.59 0.46 0.35 0.25 0.25 0.28 0.38 0.27 0.21 0.19 0.19 0.21 0.20 0.21 0.25 0.24 0.19 0.27 0.31 0.30 0.20 0.16 0.15 0.15 0.15 0.17 0.20 0.24 0.25 0.28 0.26 0.28 0.31 0.30 0.30 0.32
0.12 0.17 0.18 0.12 0.18 0.31 0.45 0.34 0.36 0.31 0.22 0.18 0.16 0.19 0.22 0.47 0.75 0.54 0.37 0.31 0.27 0.29 0.30 0.26 0.27 0.20 0.22 0.20 0.21 0.20 0.21 0.18 0.22 0.30 0.27 0.24 0.26 0.25 0.19 0.21 0.21 0.20 0.21 0.24 0.24 0.23 0.23 0.22 0.27 0.36 0.32 0.32 0.36 0.36
0.16 0.17 0.16 0.16 0.27 0.30 0.27 0.23 0.20 0.15 0.13 0.12 0.10 0.14 0.24 0.35 0.39 0.30 0.34 0.39 0.26 0.22 0.18 0.17 0.19 0.21 0.18 0.16 0.20 0.18 0.22 0.23 0.16 0.17 0.21 0.24 0.24 0.24 0.25 0.23 0.24 0.25 0.25 0.26 0.21 0.21 0.22 0.24 0.30 0.30 0.25 0.21 0.22 0.21
0.11 0.11 0.13 0.17 0.24 0.24 0.27 0.36 0.24 0.18 0.16 0.12 0.16 0.14 0.19 0.16 0.20 0.29 0.28 0.30 0.19 0.17 0.21 0.19 0.18 0.20 0.20 0.20 0.22 0.21 0.20 0.19 0.16 0.16 0.20 0.22 0.23 0.23 0.20 0.18 0.18 0.19 0.19 0.18 0.19 0.18 0.16 0.17 0.19 0.16 0.16 0.13 0.13 0.12
0.16 0.16 0.16 0.17 0.18 0.17 0.18 0.24 0.17 0.14 0.12 0.12 0.16 0.16 0.17 0.16 0.31 0.39 0.26 0.23 0.28 0.26 0.27 0.28 0.29 0.30 0.31 0.27 0.26 0.24 0.18 0.17 0.15 0.14 0.16 0.16 0.15 0.15 0.17 0.17 0.17 0.15 0.13 0.13 0.16 0.17 0.14 0.14 0.14 0.15 0.13 0.12 0.11 0.08

GFSWCAN_prec_precacc_168.txt.gz
Total_Precipitation_Accumulation
2.97 2.68 2.44 1.62 1.23 1.28 1.13 1.16 1.12 1.14 1.06 0.88 0.77 0.84 1.08 1.22 1.49 2.15 2.08 1.62 2.20 2.45 0.77 0.80 0.80 0.58 0.48 0.47 0.53 0.53 0.87 0.81 0.94 1.06 0.76 0.47 0.38 0.28 0.32 0.30 1.03 1.45 1.47 1.12 1.10 1.25 0.75 0.21 0.40 0.86 0.97 0.56 0.74 1.25
2.76 2.85 2.59 1.57 1.31 1.29 1.20 1.21 1.10 1.10 1.00 0.79 0.72 0.82 0.88 0.98 1.30 2.10 2.14 1.58 1.72 2.95 1.58 0.73 0.63 0.39 0.40 0.31 0.44 0.51 0.72 0.70 1.01 1.15 0.91 0.62 0.48 0.45 0.28 0.39 0.90 1.29 1.21 1.25 0.95 0.80 0.50 0.36 0.61 0.77 0.67 0.73 0.85 0.76
2.76 2.92 2.55 1.62 1.37 1.25 1.20 1.21 1.05 0.99 0.99 0.82 0.75 0.77 0.87 0.88 1.21 1.94 1.90 1.64 2.32 3.49 2.36 1.03 0.57 0.32 0.28 0.21 0.33 0.82 0.32 0.22 0.49 0.86 1.17 0.84 0.58 0.35 0.38 0.40 0.63 0.91 0.94 1.39 0.98 0.63 0.37 0.54 0.41 0.48 0.72 0.70 0.44 0.42
2.73 3.17 2.56 1.61 1.48 1.64 1.42 1.35 0.99 0.93 0.96 0.90 0.79 0.75 0.81 1.09 1.36 1.76 1.94 1.95 2.39 3.34 2.37 1.20 0.71 0.53 0.33 0.30 0.17 0.38 0.31 0.38 0.57 0.91 1.46 1.06 0.62 0.29 0.16 0.18 0.33 0.96 0.89 0.91 1.29 1.43 0.91 0.58 0.57 0.54 0.52 0.57 0.58 0.34
2.80 2.87 2.43 1.80 1.77 1.54 1.24 1.04 1.02 1.10 1.12 0.91 0.84 0.84 1.05 1.37 1.79 2.20 1.98 1.81 1.97 2.52 1.89 0.91 0.81 0.60 0.59 0.59 0.31 0.34 0.61 0.91 1.28 1.18 1.11 0.60 0.24 0.29 0.19 0.17 0.52 0.32 0.34 0.71 1.15 1.24 1.54 1.13 1.26 0.97 0.70 0.40 0.29 0.17
2.63 2.65 2.27 1.86 1.60 1.40 1.08 0.96 1.05 1.23 1.20 1.03 0.97 1.09 1.54 1.88 2.44 4.43 5.46 2.76 1.70 2.03 3.15 1.67 0.90 0.81 0.94 0.86 0.63 0.31 0.48 1.13 1.81 1.70 0.81 0.31 0.15 0.59 0.70 0.28 0.10 0.02 0.15 0.45 0.47 0.58 0.85 1.06 0.74 0.36 0.34 0.39 0.20 0.08
2.53 2.47 2.21 1.86 1.51 1.28 1.09 1.05 1.25 1.34 1.22 1.15 1.19 1.61 1.91 2.32 3.30 4.39 3.09 1.81 1.25 2.09 4.36 2.60 1.20 0.99 1.12 0.96 0.79 0.56 0.59 0.88 1.35 2.06 1.36 0.46 0.23 0.85 0.84 0.27 0.07 0.01 0.04 0.11 0.11 0.14 0.25 0.24 0.25 0.18 0.15 0.21 0.13 0.05
2.50 2.23 2.13 2.03 1.41 1.13 1.07 1.12 1.23 1.26 1.25 1.46 1.67 2.00 2.50 3.88 4.30 2.81 1.73 1.67 1.25 2.16 2.90 2.79 1.53 1.42 1.52 1.15 0.97 0.61 0.71 0.99 1.19 1.25 1.01 0.76 0.60 0.85 0.75 0.11 0.00 0.00 0.01 0.02 0.02 0.05 0.14 0.08 0.05 0.08 0.06 0.06 0.04 0.06
2.52 2.05 1.78 1.79 1.35 1.17 0.99 0.99 1.13 1.30 1.52 2.15 2.97 4.30 6.13 5.98 4.22 2.30 2.34 2.70 2.19 2.50 2.59 1.67 1.57 1.87 2.09 1.69 1.33 1.43 1.22 1.41 1.01 0.82 0.50 0.83 0.89 0.84 0.30 0.05 0.02 0.02 0.03 0.02 0.01 0.01 0.02 0.04 0.04 0.05 0.04 0.05 0.08 0.08
1.88 1.57 1.49 1.62 1.51 1.17 0.97 0.91 1.21 1.85 2.69 4.24 6.48 7.81 7.38 3.92 2.01 2.59 4.67 5.20 4.41 3.08 2.07 1.12 1.09 1.81 2.05 2.18 1.86 2.00 1.76 1.09 0.92 0.34 0.45 0.66 0.51 0.25 0.13 0.16 0.04 0.02 0.01 0.01 0.01 0.03 0.04 0.05 0.08 0.08 0.07 0.05 0.03 0.03
1.67 1.48 1.52 1.68 1.66 1.34 1.14 1.13 1.59 2.89 5.07 6.23 5.60 4.10 3.08 2.54 2.48 3.51 4.01 3.30 2.32 1.41 0.68 0.32 0.47 1.22 1.70 1.89 1.57 1.58 2.03 1.24 0.66 0.37 0.63 0.59 0.40 0.26 0.23 0.20 0.09 0.03 0.02 0.01 0.01 0.02 0.07 0.12 0.07 0.01 0.01 0.01 0.03 0.05
1.65 1.49 1.46 1.68 1.71 1.52 1.37 1.33 1.83 2.77 3.57 3.02 2.37 2.49 3.07 3.06 2.83 2.53 2.19 1.49 0.62 0.21 0.10 0.17 0.29 0.73 1.60 1.87 1.77 1.54 1.20 1.42 0.72 0.51 0.83 0.64 0.31 0.08 0.06 0.07 0.10 0.11 0.07 0.07 0.10 0.10 0.06 0.02 0.03 0.03 0.03 0.05 0.09 0.15
1.71 1.58 1.66 1.88 1.75 1.69 1.59 1.47 1.31 1.66 2.11 2.55 2.53 2.89 3.01 2.81 2.16 1.41 0.86 0.48 0.21 0.11 0.12 0.16 0.38 0.46 0.99 1.49 1.79 1.61 1.22 0.95 0.76 0.80 0.45 0.20 0.12 0.09 0.05 0.03 0.04 0.08 0.15 0.07 0.04 0.04 0.04 0.05 0.06 0.08 0.12 0.20 0.26 0.36
1.60 1.53 1.60 1.88 1.88 1.80 1.66 1.52 1.62 2.35 2.51 2.99 3.14 2.85 2.23 1.73 1.10 0.65 0.26 0.14 0.12 0.12 0.13 0.15 0.35 0.69 0.92 1.01 1.26 1.51 1.54 0.96 1.07 0.62 0.35 0.31 0.20 0.16 0.13 0.09 0.04 0.04 0.15 0.42 0.26 0.10 0.11 0.14 0.18 0.28 0.38 0.44 0.39 0.50
1.17 1.24 1.61 1.84 1.83 1.79 1.47 1.40 1.74 1.62 1.64 2.06 1.35 1.36 1.16 0.85 0.65 0.54 0.31 0.21 0.21 0.22 0.23 0.39 0.67 1.00 1.21 1.37 1.11 0.96 1.28 1.19 0.80 0.61 0.62 0.57 0.28 0.17 0.16 0.18 0.21 0.23 0.25 0.37 0.59 0.61 0.50 0.46 0.47 0.58 0.63 0.61 0.46 0.51
1.02 1.63 2.05 1.88 1.76 1.63 1.43 1.84 1.70 1.36 1.19 0.97 0.91 1.04 0.82 0.65 0.78 0.59 0.47 0.47 0.46 0.53 0.65 0.99 1.30 1.25 1.42 1.10 1.08 0.80 0.75 0.65 0.73 0.51 0.48 0.37 0.39 0.36 0.34 0.35 0.44 0.51 0.60 0.69 0.79 0.85 0.88 0.78 0.68 0.79 0.86 0.75 0.74 0.62
1.06 1.64 1.64 1.41 1.51 1.64 1.59 1.88 1.47 1.47 1.24 0.78 0.85 0.80 0.65 0.67 0.85 0.70 0.59 0.59 0.58 0.71 0.87 0.98 1.11 1.06 0.99 0.82 0.75 0.56 0.63 0.53 0.43 0.46 0.52 0.48 0.45 0.49 0.54 0.55 0.64 0.61 0.61 0.69 0.78 0.70 0.76 0.78 0.65 0.50 0.60 0.76 0.65 0.62
1.08 1.00 1.17 1.28 2.07 1.82 1.49 1.21 0.95 0.83 0.68 0.80 0.88 1.04 0.58 0.72 0.69 0.58 0.50 0.53 0.62 0.61 0.47 0.57 0.63 0.61 0.73 0.71 0.78 0.72 0.67 0.74 0.71 0.64 0.67 0.68 0.62 0.69 0.65 0.62 0.71 0.63 0.59 0.66 0.63 0.58 0.55 0.53 0.50 0.56 0.49 0.49 0.46 0.53
1.23 0.98 1.03 1.20 1.08 0.89 1.29 0.94 0.41 0.33 0.66 0.86 1.13 0.96 0.70 0.81 0.85 0.79 0.61 0.54 0.58 0.58 0.52 0.56 0.66 0.66 0.75 0.81 0.78 0.78 0.75 0.65 0.75 0.95 1.11 1.17 1.01 0.86 0.83 0.69 0.63 0.66 0.61 0.63 0.63 0.62 0.57 0.50 0.51 0.47 0.44 0.44 0.48 0.57
1.78 1.73 1.30 1.01 0.73 0.76 0.52 0.47 0.22 0.24 0.57 0.74 0.90 0.80 0.66 0.95 0.82 0.66 0.51 0.43 0.40 0.61 0.89 0.90 1.10 1.19 1.15 1.17 0.98 0.86 0.88 0.87 0.69 0.83 1.26 1.26 1.15 0.90 0.93 0.71 0.68 0.59 0.51 0.51 0.56 0.51 0.40 0.40 0.45 0.44 0.44 0.45 0.42 0.47
2.18 2.42 1.91 1.24 0.78 0.55 0.51 0.52 0.43 0.34 0.41 0.61 0.80 0.51 0.71 0.52 0.51 0.47 0.38 0.25 0.38 0.75 1.01 1.22 1.29 1.61 1.56 1.28 1.08 0.81 0.88 0.68 0.78 0.60 0.74 0.97 1.08 0.65 0.74 0.72 0.59 0.52 0.46 0.46 0.43 0.54 0.44 0.37 0.40 0.35 0.35 0.41 0.37 0.32
1.89 1.77 1.57 0.75 0.41 0.16 0.26 0.36 0.29 0.34 0.33 0.61 0.60 0.40 0.53 0.56 0.52 0.48 0.25 0.34 0.82 1.16 1.35 1.29 1.20 1.21 1.03 1.04 1.04 0.85 0.87 0.63 0.61 0.62 0.64 0.51 0.68 0.61 0.62 0.66 0.47 0.52 0.51 0.51 0.40 0.42 0.40 0.31 0.27 0.28 0.26 0.26 0.23 0.24
1.05 0.88 0.58 0.44 0.32 0.25 0.47 0.51 0.38 0.51 0.45 0.56 0.39 0.33 0.42 0.43 0.45 0.20 0.37 0.66 0.96 1.23 1.29 1.08 1.08 1.02 0.86 1.01 0.62 0.69 0.80 0.44 0.49 0.58 0.59 0.54 0.52 0.52 0.43 0.52 0.51 0.44 0.43 0.46 0.36 0.32 0.30 0.26 0.23 0.22 0.21 0.18 0.20 0.25
0.64 0.73 0.59 0.39 0.29 0.36 0.21 0.19 0.24 0.29 0.30 0.29 0.25 0.37 0.47 0.45 0.23 0.17 0.41 0.66 1.02 0.87 0.76 0.87 0.77 0.77 0.61 0.47 0.51 0.62 0.87 0.60 0.41 0.49 0.58 0.41 0.32 0.49 0.38 0.40 0.42 0.40 0.32 0.29 0.25 0.23 0.22 0.21 0.19 0.18 0.20 0.28 0.30 0.29
1.01 0.84 0.39 0.25 0.12 0.11 0.08 0.10 0.12 0.12 0.23 0.19 0.17 0.33 0.42 0.27 0.17 0.25 0.38 0.66 0.60 0.67 0.76 0.77 0.66 0.60 0.60 0.64 0.62 0.62 0.66 0.56 0.40 0.30 0.56 0.50 0.43 0.43 0.41 0.34 0.30 0.27 0.21 0.21 0.27 0.31 0.26 0.25 0.28 0.28 0.24 0.22 0.20 0.19
0.74 0.38 0.16 0.12 0.11 0.07 0.06 0.08 0.09 0.10 0.10 0.12 0.18 0.22 0.16 0.10 0.10 0.21 0.33 0.51 0.49 0.54 0.63 0.66 0.68 0.54 0.55 0.55 0.52 0.50 0.54 0.47 0.36 0.31 0.45 0.42 0.41 0.39 0.38 0.33 0.29 0.26 0.18 0.18 0.25 0.27 0.25 0.18 0.16 0.16 0.16 0.14 0.15 0.20
0.34 0.18 0.05 0.04 0.11 0.11 0.08 0.07 0.06 0.08 0.12 0.16 0.18 0.16 0.17 0.15 0.16 0.34 0.36 0.36 0.37 0.48 0.45 0.44 0.39 0.38 0.44 0.49 0.48 0.49 0.37 0.29 0.31 0.29 0.23 0.17 0.15 0.16 0.23 0.33 0.37 0.34 0.21 0.19 0.22 0.26 0.27 0.22 0.19 0.15 0.18 0.19 0.20 0.25
0.14 0.05 0.06 0.09 0.10 0.11 0.12 0.11 0.12 0.15 0.16 0.16 0.15 0.14 0.21 0.16 0.32 0.44 0.46 0.51 0.42 0.35 0.31 0.31 0.29 0.25 0.27 0.29 0.31 0.32 0.32 0.29 0.22 0.14 0.09 0.14 0.16 0.17 0.16 0.21 0.24 0.18 0.16 0.20 0.20 0.22 0.25 0.26 0.26 0.25 0.26 0.28 0.25 0.23
0.09 0.07 0.06 0.07 0.15 0.20 0.23 0.22 0.25 0.27 0.24 0.25 0.20 0.21 0.26 0.42 0.71 0.59 0.59 0.46 0.36 0.25 0.26 0.28 0.38 0.27 0.21 0.19 0.19 0.22 0.20 0.21 0.26 0.24 0.19 0.27 0.31 0.30 0.20 0.17 0.15 0.15 0.15 0.17 0.20 0.24 0.25 0.28 0.27 0.29 0.32 0.32 0.32 0.34
0.12 0.17 0.19 0.12 0.19 0.31 0.45 0.34 0.36 0.32 0.22 0.18 0.16 0.19 0.22 0.47 0.76 0.55 0.38 0.32 0.27 0.30 0.30 0.26 0.27 0.20 0.22 0.20 0.22 0.20 0.22 0.18 0.22 0.30 0.27 0.24 0.26 0.25 0.19 0.22 0.22 0.20 0.21 0.25 0.25 0.23 0.23 0.22 0.27 0.36 0.33 0.33 0.37 0.37
0.16 0.17 0.16 0.16 0.27 0.30 0.27 0.24 0.20 0.15 0.13 0.12 0.10 0.14 0.24 0.35 0.39 0.30 0.34 0.40 0.27 0.23 0.18 0.18 0.19 0.21 0.18 0.17 0.20 0.19 0.22 0.23 0.16 0.17 0.21 0.24 0.24 0.24 0.25 0.24 0.24 0.25 0.25 0.26 0.22 0.22 0.22 0.24 0.30 0.30 0.25 0.22 0.23 0.21
0.11 0.12 0.13 0.17 0.24 0.24 0.27 0.36 0.24 0.18 0.17 0.13 0.16 0.14 0.19 0.16 0.20 0.29 0.28 0.31 0.21 0.18 0.21 0.19 0.18 0.20 0.20 0.20 0.22 0.21 0.20 0.19 0.16 0.16 0.20 0.22 0.23 0.23 0.20 0.19 0.18 0.19 0.19 0.19 0.20 0.19 0.17 0.18 0.19 0.16 0.16 0.14 0.14 0.13
0.16 0.16 0.16 0.17 0.18 0.18 0.18 0.24 0.17 0.14 0.13 0.13 0.16 0.17 0.18 0.17 0.31 0.39 0.26 0.24 0.29 0.28 0.28 0.29 0.30 0.30 0.31 0.27 0.26 0.24 0.18 0.17 0.15 0.14 0.16 0.16 0.15 0.15 0.17 0.17 0.17 0.15 0.14 0.14 0.16 0.17 0.15 0.14 0.15 0.16 0.14 0.13 0.12 0.09